Location: *
(29.1167°S, 130.0000°E)
Time: 07:15:00
(UTC+00:00)

SL-16 R/B - Pass Details

Date: 21 July 2019
Orbit: 843 x 846 km, 71.0° (Epoch: 24 August)

Event Time Altitude Azimuth Distance (km) Brightness Sun altitude
Rises 10:16:46 0° 213° (SSW) 3,424 5.6 -20.4°
Reaches altitude 10° 10:19:29 10° 223° (SW) 2,482 5.0 -21.0°
Maximum altitude 10:24:22 30° 282° (WNW) 1,471 4.1 -22.0°
Drops below altitude 10° 10:29:13 10° 342° (NNW) 2,456 5.0 -23.1°
Sets 10:31:55 0° 352° (N) 3,383 5.6 -23.6°
